Weather History for Central Park, NY

Change the Weather History Date:

Thursday, February 14, 2013

  Actual Average Record
Temperature  
Mean Temperature 40 °F 35 °F  
Max Temperature 46 °F 41 °F 63 °F (1946)
Min Temperature 33 °F 29 °F 2 °F (1916)
Degree Days  
Heating Degree Days 25 30  
Month to date heating degree days 467 433  
Since 1 July heating degree days 2976 3122  
Cooling Degree Days 0 0  
Month to date cooling degree days 0 0  
Year to date cooling degree days 0 0  
Moisture  
Dew Point 28 °F    
Average Humidity 63    
Maximum Humidity 89    
Minimum Humidity 37    
Precipitation  
Precipitation T in 0.11 in 1.59 in (1914)
Month to date precipitation 2.11 1.50  
Year to date precipitation 4.87 5.15  
Snow  
Snow T in 0.30 in 8.10 in (1914)
Month to date snowfall 12.2 4.6  
Since 1 July snowfall 18.8 16.7  
Snow Depth 0.00 in    
Sea Level Pressure  
Sea Level Pressure 29.88 in    
Wind  
Wind Speed 4 mph (WNW)    
Max Wind Speed 13 mph    
Max Gust Speed 18 mph    
Visibility 9 miles    
Events Snow    
T = Trace of Precipitation, MM = Missing Value Source: NWS Daily Summary

Daily Weather History Graph

Daily Weather History Graph

Search for Another Location

Airport:

Trip Planner

Search our weather history database for the weather conditions in past years. The results will help you decide how hot, cold, wet, or windy it might be!

Date:

Astronomy

Feb. 14, 2013 Rise Set
Actual Time 6:50 AM EST 5:29 PM EST
Civil Twilight 6:22 AM EST 5:57 PM EST
Nautical Twilight 5:50 AM EST 6:30 PM EST
Astronomical Twilight 5:18 AM EST 7:01 PM EST
Moon 8:49 AM EST (2/14) 10:32 PM EST (2/14)
Length of Visible Light 11h 35m
Length of Day
10h 38m
Waxing Crescent, 21% of the Moon is Illuminated
Feb 14
Waxing Crescent
Feb 17
First Quarter
Feb 25
Full
Mar 4
Last Quarter
Mar 11
New

Hourly Weather History & Observations

Time (EST) Temp. Windchill Dew Point Humidity Pressure Visibility Wind Dir Wind Speed Gust Speed Precip Events Conditions
12:51 AM 34.0 °F 28.0 °F 30.9 °F 89% 29.72 in 4.0 mi Variable 6.9 mph - 0.01 in Snow Light Snow
1:38 AM 34.0 °F 29.8 °F 30.9 °F 89% 29.75 in 9.0 mi Variable 4.6 mph - 0.00 in   Overcast
1:51 AM 34.0 °F 28.8 °F 30.9 °F 89% 29.73 in 10.0 mi Variable 5.8 mph - 0.00 in   Overcast
2:12 AM 34.0 °F 28.8 °F 30.9 °F 89% 29.76 in 9.0 mi Variable 5.8 mph - N/A   Overcast
2:24 AM 34.0 °F 28.8 °F 30.9 °F 89% 29.77 in 10.0 mi Variable 5.8 mph - N/A   Overcast
2:49 AM 33.8 °F - 30.2 °F 87% 29.79 in 8.0 mi Calm Calm - N/A   Overcast
2:51 AM 34.0 °F - 30.9 °F 89% 29.77 in 8.0 mi Calm Calm - N/A   Overcast
3:02 AM 34.0 °F - 30.9 °F 89% 29.80 in 8.0 mi Calm Calm - N/A   Overcast
3:12 AM 34.0 °F 28.0 °F 30.9 °F 89% 29.80 in 8.0 mi North 6.9 mph - N/A   Overcast
3:51 AM 34.0 °F - 30.0 °F 85% 29.79 in 10.0 mi Calm Calm - N/A   Overcast
4:51 AM 34.0 °F 28.8 °F 30.0 °F 85% 29.81 in 9.0 mi Variable 5.8 mph - N/A   Clear
5:51 AM 33.1 °F - 28.9 °F 85% 29.83 in 9.0 mi Calm Calm - N/A   Clear
6:51 AM 33.1 °F 30.0 °F 27.0 °F 78% 29.86 in 9.0 mi NW 3.5 mph - N/A   Clear
7:51 AM 34.0 °F 28.8 °F 27.0 °F 75% 29.91 in 9.0 mi West 5.8 mph - N/A   Clear
8:51 AM 36.0 °F 31.1 °F 25.0 °F 64% 29.93 in 10.0 mi NW 5.8 mph - N/A   Clear
9:51 AM 37.0 °F 33.3 °F 24.1 °F 59% 29.94 in 10.0 mi WNW 4.6 mph - N/A   Clear
10:51 AM 39.9 °F 36.7 °F 24.1 °F 53% 29.95 in 10.0 mi Variable 4.6 mph - N/A   Clear
11:51 AM 41.0 °F 39.0 °F 25.0 °F 53% 29.94 in 10.0 mi WNW 3.5 mph - N/A   Clear
12:51 PM 44.1 °F 42.5 °F 25.0 °F 47% 29.93 in 10.0 mi Variable 3.5 mph - N/A   Clear
1:51 PM 44.1 °F 39.5 °F 21.9 °F 42% 29.93 in 10.0 mi WNW 8.1 mph - N/A   Clear
2:51 PM 44.1 °F 41.5 °F 23.0 °F 43% 29.93 in 10.0 mi Variable 4.6 mph - N/A   Clear
3:51 PM 46.0 °F 44.8 °F 21.9 °F 39% 29.94 in 10.0 mi Variable 3.5 mph - N/A   Clear
4:51 PM 44.1 °F 39.5 °F 24.1 °F 45% 29.96 in 10.0 mi SW 8.1 mph - N/A   Clear
5:51 PM 42.1 °F 38.4 °F 23.0 °F 47% 29.96 in 10.0 mi Variable 5.8 mph - N/A   Clear
6:51 PM 39.9 °F 36.7 °F 30.0 °F 68% 29.98 in 9.0 mi Variable 4.6 mph - N/A   Clear
7:51 PM 39.9 °F - 30.9 °F 70% 29.98 in 8.0 mi Calm Calm - N/A   Clear
8:51 PM 39.9 °F - 30.0 °F 68% 29.99 in 8.0 mi Calm Calm - N/A   Clear
9:51 PM 42.1 °F 37.7 °F 28.0 °F 58% 29.99 in 9.0 mi WSW 6.9 mph - N/A   Clear
10:51 PM 39.9 °F - 28.0 °F 63% 29.99 in 8.0 mi Calm Calm - N/A   Clear
11:51 PM 39.9 °F 34.5 °F 28.0 °F 63% 30.00 in 8.0 mi WSW 8.1 mph 18.4 mph N/A   Clear